📊 Raw Sensor Data
Showing records 48076 to 48100 of 85,095 total
| ID | Distance (ft) | Battery V | Battery A | Int Temp (°F) | Int Humid (%) | Ext Temp (°F) | Solar V | RSSI | SNR | Time Stamp |
|---|---|---|---|---|---|---|---|---|---|---|
| 37032 | -- | 3.95 | 21 | 42 | 39 | 47 | 4.50 | -77 | 8 | 04/06/2025 07:30 AM |
| 37031 | -- | 3.95 | 0 | 41 | 40 | 44 | 4.50 | -77 | 9 | 04/06/2025 07:15 AM |
| 37030 | -- | 3.74 | 0 | 40 | 40 | 43 | 4.50 | -78 | 9 | 04/06/2025 07:00 AM |
| 37029 | -- | 3.84 | -10 | 39 | 40 | 42 | 4.20 | -78 | 7 | 04/06/2025 06:45 AM |
| 37028 | -- | 3.74 | -5 | 39 | 40 | 42 | 1.40 | -78 | 9 | 04/06/2025 06:30 AM |
| 37027 | -- | 3.73 | -5 | 39 | 40 | 41 | 0.00 | -77 | 8 | 04/06/2025 06:16 AM |
| 37026 | -- | 3.72 | -5 | 40 | 40 | 42 | 0.00 | -77 | 8 | 04/06/2025 06:00 AM |
| 37025 | -- | 3.87 | -5 | 40 | 40 | 42 | 0.10 | -78 | 8 | 04/06/2025 05:45 AM |
| 37024 | -- | 3.74 | -5 | 39 | 40 | 41 | 0.00 | -77 | 8 | 04/06/2025 05:30 AM |
| 37023 | -- | 3.74 | -5 | 39 | 40 | 42 | 0.00 | -77 | 8 | 04/06/2025 05:15 AM |
| 37022 | -- | 3.74 | -5 | 39 | 40 | 42 | 0.00 | -77 | 8 | 04/06/2025 05:00 AM |
| 37021 | -- | 3.87 | -5 | 39 | 40 | 41 | 0.00 | -77 | 8 | 04/06/2025 04:45 AM |
| 37020 | -- | 3.75 | -5 | 40 | 40 | 43 | 0.00 | -77 | 8 | 04/06/2025 04:30 AM |
| 37019 | -- | 3.74 | -5 | 40 | 40 | 43 | 0.00 | -77 | 8 | 04/06/2025 04:15 AM |
| 37018 | -- | 3.75 | -5 | 40 | 40 | 42 | 0.00 | -77 | 8 | 04/06/2025 04:00 AM |
| 37017 | -- | 3.75 | -5 | 41 | 40 | 43 | 0.00 | -77 | 8 | 04/06/2025 03:46 AM |
| 37016 | -- | 3.75 | -5 | 41 | 40 | 44 | 0.10 | -78 | 7 | 04/06/2025 03:30 AM |
| 37015 | -- | 3.75 | -5 | 41 | 40 | 44 | 0.00 | -77 | 8 | 04/06/2025 03:00 AM |
| 37014 | -- | 3.74 | -5 | 41 | 40 | 43 | 0.00 | -77 | 9 | 04/06/2025 02:45 AM |
| 37013 | -- | 3.87 | -5 | 41 | 41 | 44 | 0.00 | -78 | 8 | 04/06/2025 02:30 AM |
| 37012 | -- | 3.74 | -5 | 41 | 41 | 44 | 0.00 | -77 | 8 | 04/06/2025 02:15 AM |
| 37011 | -- | 3.75 | -5 | 41 | 41 | 43 | 0.00 | -77 | 8 | 04/06/2025 02:00 AM |
| 37010 | -- | 3.87 | -5 | 42 | 41 | 45 | 0.00 | -77 | 8 | 04/06/2025 01:45 AM |
| 37009 | -- | 3.76 | -5 | 42 | 42 | 46 | 0.00 | -77 | 9 | 04/06/2025 01:15 AM |
| 37008 | -- | 3.88 | -5 | 42 | 42 | 44 | 0.00 | -76 | 8 | 04/06/2025 01:00 AM |